Home   Weather   Astrakhan   Past weeks

Flag for Russia Past Weather in Astrakhan, Russia — Yesterday and Last 2 Weeks

Now
30 °F

Overcast.


Feels Like: 19 °F
Forecast: 25 / 37 °F
Wind: 15 mph from Northwest

Location: Astrakhan

Current Time: Jan 23, 2017 at 2:48:04 pm

Latest Report: Jan 23, 2017 at 2:00 pm


Visibility: N/A

Pressure: 30.24 "Hg

Humidity: 75%

Dew Point: 23 °F

Location of AstrakhanLocation

Past Weather in Astrakhan — Graph

°F

Astrakhan Temperature Yesterday

Maximum temperature yesterday: 30 °F (at 2:00 am)
Minimum temperature yesterday: 19 °F (at 10:30 pm)
Average temperature yesterday: 27 °F

High & Low Weather Summary for the Past Weeks

 TemperatureHumidityPressure
High37 °F (Jan 8, 1:00 pm)93% (Jan 10, 3:00 am)30.54 "Hg (Jan 10, 3:00 am)
Low7 °F (Jan 20, 5:00 am)47% (Jan 22, 2:00 pm)29.89 "Hg (Jan 8, 1:00 pm)
Average26 °F80%30.27 "Hg
* Reported Jan 8 1:00 pm — Jan 23 1:30 pm, Astrakhan, Weather by CustomWeather, © 2017

Note: Actual official high and low records may vary slightly from our data, if they occured in-between our weather recording intervals... More about our weather records

Advertising

Astrakhan Weather History for the Previous 24 Hours

Scroll right to see more
 ConditionsComfort  
Time TempWeatherWind HumidityBarometerVisibility
1:30 pm
Mon, Jan 23
32 °FOvercast.17 mph69%30.24 "HgN/A
1:00 pm28 °FOvercast.15 mph74%30.24 "HgN/A
12:30 pm28 °FOvercast.17 mph74%30.24 "HgN/A
12:00 pm28 °FOvercast.17 mph74%30.24 "HgN/A
11:30 am27 °FOvercast.17 mph80%30.24 "HgN/A
11:00 am27 °FOvercast.15 mph80%30.24 "HgN/A
10:30 am25 °FOvercast.15 mph80%30.21 "HgN/A
10:00 am25 °FOvercast.17 mph80%30.21 "HgN/A
9:30 am25 °FOvercast.17 mph80%30.21 "HgN/A
9:00 am23 °FLight snow. Overcast.17 mph86%30.18 "Hg5 mi
8:30 am23 °FLight snow. Overcast.17 mph86%30.18 "Hg3 mi
8:00 am23 °FLight snow. Overcast.17 mph80%30.18 "Hg2 mi
7:30 am23 °FLight snow. Overcast.17 mph80%30.18 "Hg2 mi
7:00 am23 °FLight snow. Overcast.17 mph80%30.18 "HgN/A
6:30 am23 °FClear.15 mph80%30.18 "Hg10 mi
6:00 am23 °FClear.15 mph80%30.18 "Hg10 mi
5:30 am23 °FClear.15 mph80%30.18 "Hg10 mi
5:00 am21 °FClear.17 mph86%30.21 "Hg10 mi
4:30 am21 °FClear.15 mph80%30.21 "Hg10 mi
4:00 am21 °FClear.15 mph80%30.21 "Hg10 mi
3:30 am21 °FClear.15 mph80%30.24 "Hg10 mi
3:00 am19 °FClear.13 mph86%30.24 "Hg10 mi
2:30 am19 °FClear.15 mph86%30.24 "Hg10 mi
2:00 am19 °FClear.15 mph86%30.24 "Hg10 mi
1:30 am19 °FClear.15 mph86%30.24 "Hg10 mi
1:00 am19 °FClear.15 mph86%30.27 "Hg10 mi
12:30 am18 °FClear.13 mph86%30.27 "Hg10 mi
12:00 am19 °FClear.13 mph86%30.27 "Hg10 mi
11:30 pm
Sun, Jan 22
19 °FClear.13 mph86%30.27 "Hg10 mi
11:00 pm19 °FClear.10 mph79%30.27 "Hg10 mi
10:30 pm19 °FClear.10 mph86%30.27 "Hg10 mi
10:00 pm21 °FClear.13 mph80%30.27 "Hg10 mi
9:30 pm21 °FClear.13 mph80%30.27 "Hg10 mi
9:00 pm23 °FClear.15 mph74%30.27 "Hg10 mi
8:30 pm23 °FClear.13 mph74%30.27 "Hg10 mi
8:00 pm23 °FClear.13 mph74%30.27 "Hg10 mi
7:30 pm25 °FClear.15 mph63%30.27 "Hg10 mi
7:00 pm25 °FClear.13 mph63%30.27 "Hg10 mi
6:30 pm25 °FSunny.13 mph63%30.24 "Hg10 mi
6:00 pm27 °FSunny.13 mph59%30.24 "Hg10 mi
5:30 pm28 °FSunny.15 mph55%30.24 "Hg10 mi
5:00 pm30 °FSunny.15 mph51%30.24 "Hg10 mi
4:30 pm30 °FSunny.17 mph51%30.21 "Hg10 mi
4:00 pm30 °FSunny.17 mph51%30.21 "Hg10 mi
3:30 pm30 °FSunny.20 mph47%30.21 "Hg10 mi
3:00 pm30 °FSunny.17 mph51%30.18 "Hg10 mi
2:30 pm30 °FSunny.17 mph51%30.18 "Hg10 mi
2:00 pm30 °FSunny.17 mph47%30.18 "Hg10 mi
Weather by CustomWeather, © 2017

See weather overviewHow to use our weather pages